User: anonymous   Login
Location: Trois-Rivi�res
(46.3500°N, 72.5500°W)
Time: 20:19:26
(UTC-04:00)
Language:

Cosmos 1975 - Orbit

View from above orbital plane
View from above orbital plane
View from above satellite
View from above satellite

Ground track
Ground track

The orbit data is extracted from the following two-line orbital elements,

1 19573U 88093A   17175.52195765 +.00000670 +00000-0 +46157-4 0  9994
2 19573 082.5194 338.3830 0012833 275.1770 084.7992 15.04174262539772
Epoch (UTC): 24 June 2017 12:31:37
Eccentricity: 0.0012833
inclination: 82.5194°
perigee height: 545 km
apogee height: 563 km
right ascension of ascending node: 338.3830°
argument of perigee: 275.1770°
revolutions per day: 15.04174262
mean anomaly at epoch: 84.7992°
orbit number at epoch: 53977

The dashed part of the orbit path shows where the satellite is in the earth's shadow,  

DLR